Regional Weather Roundup
Issued by NWS

Home | Current Version | Previous Version | Graphics & Text | Print | Product List | Glossary On
Versions: 1 2 3 4 5 6 7 8 9 10 11 12 13 14 15 16 17 18 19 20 21 22 23 24 25 26 27 28 29 30 31 32 33 34 35 36 37 38 39 40 41 42 43 44 45 46 47 48 49 50
000
ASUS43 KDMX 281507
RWRIA

WEATHER ROUNDUP FOR IOWA
NATIONAL WEATHER SERVICE DES MOINES IA
1000 AM CDT SAT MAR 28 2015

NOTE: "FAIR" INDICATES FEW OR NO CLOUDS BELOW 12,000 FEET WITH NO
SIGNIFICANT WEATHER AND/OR OBSTRUCTIONS TO VISIBILITY.

* - THESE STATIONS ARE NOT NWS STATIONS...THUS NOT UNDER NWS
QUALITY CONTROL.  THEY ALSO DO NOT REPORT WEATHER SUCH
AS PRECIPITATION OR FOG.

IAZ001>003-012>014-020>022-031>034-043>046-281600-
   NORTHWEST IOWA

CITY           SKY/WX    TMP DP  RH WIND       PRES   REMARKS
CARROLL *      SUNNY     37  25  60 SE13      30.19S WCI  29
CHEROKEE *     SUNNY     36  27  69 SE14      30.18S WCI  27
DENISON *      CLOUDY    37  28  70 SE16      30.16R WCI  28
LE MARS *      SUNNY     37  27  65 SE14G20   30.16S WCI  29
ORANGE CITY *  SUNNY     37  27  65 SE10      30.15S WCI  30
SHELDON *      SUNNY     34  30  86 SE16      30.15S WCI  23
SIOUX CITY     SUNNY     38  26  62 SE13      30.16S WCI  30
SPENCER        CLOUDY    32  27  81 SE12      30.19R WCI  23
STORM LAKE *   SUNNY     34  28  80 SE13      30.18R WCI  25
$$

IAZ055>058-069>071-079>083-090>094-281600-
   SOUTHWEST IOWA

CITY           SKY/WX    TMP DP  RH WIND       PRES   REMARKS
ATLANTIC *     CLOUDY    37  23  56 SE12      30.19R WCI  30
AUDUBON *      SUNNY     39  23  52 S8        30.19S WCI  34
CLARINDA *     MOSUNNY   37  27  65 SE12G17   30.21R WCI  30
COUNCIL BLFS * SUNNY     37  27  65 SE17      30.16S WCI  28
CRESTON *      CLOUDY    36  25  64 SE15      30.20R WCI  26
HARLAN  *      CLOUDY    36  28  75 SE12      30.21S WCI  27
LAMONI         CLOUDY    35  25  66 SE7       30.22R WCI  29
RED OAK *      SUNNY     39  27  60 E13       30.18S WCI  32
SHENANDOAH *   SUNNY     39  28  65 SE17      30.19R WCI  30
$$

IAZ047>049-059>061-072>074-084-281600-
   CENTRAL IOWA

CITY           SKY/WX    TMP DP  RH WIND       PRES   REMARKS
AMES           CLOUDY    35  15  44 SE13      30.24R WCI  26
ANKENY *       CLOUDY    36  14  41 SE13      30.25R WCI  27
CHARITON *     CLOUDY    36  14  41 S15       30.24R WCI  26
DES MOINES     MOSUNNY   39  14  36 S14       30.25R WCI  31
GRINNELL*      SUNNY     34  16  47 SE12      30.27R WCI  25
KNOXVILLE *    MOSUNNY   37  12  35 SE12      30.24R WCI  30
MARSHALLTOWN   SUNNY     33  17  51 S12       30.26R WCI  24
PELLA *        MOSUNNY   36  19  51 SE10      30.28R WCI  28
PERRY *        CLOUDY    36  21  55 SE8       30.22R WCI  29
$$

IAZ004>006-015-016-023>025-035-036-281600-
   NORTH CENTRAL IOWA

CITY           SKY/WX    TMP DP  RH WIND       PRES   REMARKS
ALGONA *       CLOUDY    32  19  59 SE7       30.22S WCI  26
CLARION *      CLOUDY    32  19  59 SE12      30.23S WCI  23
ESTHERVILLE    CLOUDY    31  22  69 SE10      30.19S WCI  22
FORT DODGE *   CLOUDY    34  18  51 SE6       30.23R WCI  29
MASON CITY     SUNNY     33  18  53 S12       30.25R WCI  24
FOREST CITY *  SUNNY     32  19  59 SE12      30.23R WCI  23
IOWA FALLS *     N/A     34  19  55 SE10      30.25S WCI  26
$$

IAZ007>011-017>019-026>030-037>042-050>054-066-281600-
   NORTHEAST IOWA

CITY           SKY/WX    TMP DP  RH WIND       PRES   REMARKS
CEDAR RAPIDS   SUNNY     32  16  51 SE13      30.29R WCI  22
CHARLES CITY * SUNNY     32  18  55 S9        30.26F WCI  24
CLINTON *      SUNNY     28  18  64 S5        30.37R WCI  23
DECORAH *      SUNNY     27  12  54 SE8       30.28R WCI  18
DUBUQUE        SUNNY     29  16  58 S10       30.31R WCI  20
MONTICELLO *   SUNNY     32  21  64 SE9       30.31S WCI  24
OELWEIN *      SUNNY     30  18  59 S12       30.29R WCI  21
WATERLOO       SUNNY     33  16  49 S12       30.27S WCI  24
$$

IAZ064-065-067-068-078-281600-
   EAST CENTRAL IOWA

CITY           SKY/WX    TMP DP  RH WIND       PRES   REMARKS
DAVENPORT      SUNNY     30  15  53 S8        30.33R WCI  22
IOWA CITY      SUNNY     33  18  53 SE8       30.33R WCI  26
MT. PLEASANT * SUNNY     34  16  47 SE9       30.31S WCI  26
MUSCATINE *    SUNNY     32  19  59 SE8       30.34S WCI  25
QUAD CITIES    SUNNY     30  17  58 SE7       30.34R WCI  23
$$

IAZ062-063-075>077-085>089-095>099-281600-
   SOUTHEAST IOWA

CITY           SKY/WX    TMP DP  RH WIND       PRES   REMARKS
BURLINGTON     SUNNY     32  19  58 SE8       30.32R WCI  25
FAIRFIELD *    SUNNY     34  16  47 S12       30.30R WCI  25
FORT MADISON * SUNNY     34  19  55 SE12      30.32R WCI  25
KEOKUK *       SUNNY     34  18  51 SE10      30.31R WCI  26
OSKALOOSA *      N/A     34  18  51 S10       30.28R WCI  26
CENTERVILLE *  MOSUNNY   37  16  41 SE10      30.26S WCI  30
OTTUMWA        SUNNY     34  15  46 SE12      30.27R WCI  25
WASHINGTON *   SUNNY     34  18  51 S12G17    30.31R WCI  25
$$

ABBREVIATIONS USED IN REMARKS
   TC - TEMPERATURES IN CELSIUS
  WCI - WIND CHILL INDEX
   HX - HEAT INDEX
  VSB - VISIBILITY
$$




USA.gov is the U.S. government's official web portal to all federal, state and local government web resources and services.